{"data":{"norad_id":55479,"intl_designator":"2023-015AG","name":"STARLINK-5688","alt_names":[],"object_type":"PAYLOAD","status":"ACTIVE","operator":null,"country":"US","launch_date":"2023-02-02","launch_site_code":"AFETR","launch_vehicle":null,"mission":null,"orbit_class":"UNKNOWN","rcs_meters":null,"size_class":null,"mass_kg":null,"dimensions":null,"purposes":["comms"],"wikipedia_slug":null,"has_3d_model":false,"image_url":null,"decayed_at":null,"tle_current":{"epoch":"2026-05-24T23:59:46.078368Z","epoch_age_seconds":69026,"freshness":"FRESH","line1":"1 55479U 23015AG  26144.99983887 -.00000204  00000+0  21130-5 0  9997","line2":"2 55479  43.0029 250.6374 0001392 270.9231  89.1461 15.27575911182470","mean_motion":15.27575911,"eccentricity":0.0001392,"inclination_deg":43.0029,"raan_deg":250.6374,"arg_perigee_deg":270.9231,"mean_anomaly_deg":89.1461,"bstar":2.113e-6,"rev_number":18247,"period_min":94.267001045947,"perigee_km":482.10626119505,"apogee_km":484.0164188129,"semimajor_km":6861.198340004,"source":"CELESTRAK","updated_at":"2026-05-25T13:38:17.808747Z"}}}